User: anonymous   Login
Location: Grand Rapids
(42.9630°N, 85.6680°W)
Time: 02:34:37
(UTC-04:00)
Language:

Altair - Orbit

View from above orbital plane
View from above orbital plane
View from above satellite
View from above satellite

Ground track
Ground track

The orbit data is extracted from the following two-line orbital elements,

1 00050U 60009B   24150.62518687 -.00000047  00000-0  35544-3 0  9991
2 00050  47.2334 325.1869 0113173 303.9719  55.0358 12.20140569846309
Epoch (UTC): 29 May 2024 15:00:16
Eccentricity: 0.0113173
inclination: 47.2334°
perigee height: 1502 km
apogee height: 1682 km
right ascension of ascending node: 325.1869°
argument of perigee: 303.9719°
revolutions per day: 12.20140569
mean anomaly at epoch: 55.0358°
orbit number at epoch: 84630

The dashed part of the orbit path shows where the satellite is in the earth's shadow,  

DLR